[[{"header":{"parameterUnit":"m.s-1","parameterCategory":1,"la1":30.2991,"la2":30.254,"lo1":-89.0895,"lo2":-89.0444,"dy":0.0017,"dx":0.0017,"nx":28,"ny":28,"refTime":"2024-02-12T09:00:00:Z","depth":0,"parameterNumber":2,"parameterNumberName":"U-component_of_WINDS"},"data":[0,0,0,0,0,0,0,0,0,0,0,0,0,0,0,0,0,0,0,0,0,0,0,0,0,0,0,0,0,0,0,0,0,0,0,0,0,0,0,0,0,0,0,0,0,0,0,0,0,0,0,0,0,0,0,0,0,0,1.7776,1.7776,0,1.7827,1.7827,1.7828,1.783,1.783,1.7829,1.7828,1.7882,1.7884,1.7885,0,0,0,0,0,0,0,0,0,0,0,0,0,1.7682,1.7684,1.7776,1.7776,1.7777,1.7827,1.7827,1.7828,1.783,1.783,1.7829,1.7828,1.7881,1.7883,1.7886,0,0,0,0,0,0,0,0,0,0,0,0,0,1.7727,1.7684,1.7775,1.7784,1.7785,1.7826,1.7827,1.7828,1.7831,1.783,1.7829,1.7828,1.788,1.7883,1.7886,1.7922,0,0,1.7895,1.7896,0,0,0,0,0,0,0,0,1.7724,1.773,1.7782,1.7783,1.7785,1.7821,1.7814,1.786,1.7831,1.7813,1.7828,1.7827,1.7862,1.7867,1.7878,1.7925,1.7927,1.7895,1.7897,1.7898,1.7899,0,0,0,0,0,0,0,1.7721,1.7728,1.7796,1.7783,1.7785,1.7786,1.7791,1.7823,1.7842,1.7815,1.7815,1.7821,1.7863,1.7875,1.788,1.7928,1.7895,1.7898,1.79,1.7901,1.8009,1.801,0,0,0,0,0,0,1.7716,1.7726,1.7794,1.7797,1.7752,1.7788,1.7794,1.781,1.7842,1.7846,1.7822,1.7821,1.7871,1.7876,1.7881,1.7927,1.7898,1.7901,1.7903,1.8008,1.8009,1.801,0,0,0,0,0,0,1.7714,1.7722,1.7792,1.7762,1.7771,1.7791,1.7809,1.7812,1.7824,1.7847,1.7851,1.7831,1.787,1.7877,1.7913,1.7929,1.7902,1.7905,1.8007,1.8008,1.801,1.8018,0,0,0,0,0,0,1.7712,1.7722,1.7735,1.7762,1.7772,1.7822,1.781,1.7814,1.7829,1.7829,1.7857,1.786,1.787,1.7908,1.7915,1.7933,1.7907,1.8005,1.8007,1.8009,1.8017,1.802,1.8023,0,0,0,0,0,1.7708,1.7735,1.7736,1.7744,1.7789,1.7823,1.7829,1.7839,1.7831,1.7845,1.786,1.7859,1.7926,1.7912,1.792,1.7938,1.8004,1.8007,1.8009,1.8015,1.802,1.8023,0,0,0,0,0,0,1.771,1.7739,1.774,1.7776,1.7797,1.7823,1.7841,1.7843,1.7867,1.7865,1.7877,1.7884,1.7919,1.7932,1.7916,1.7976,1.7964,1.7969,1.7966,1.797,1.7973,1.797,1.791,0,0,0,0,0,1.7714,1.7738,1.7763,1.7793,1.7803,1.782,1.7835,1.7842,1.7864,1.7873,1.789,1.7912,1.7938,1.7955,1.798,1.8019,1.8026,1.8036,1.8039,1.8041,1.8045,1.8068,1.8073,1.8018,1.8018,1.8018,0,0,1.7724,1.7743,1.7757,1.7793,1.781,1.7836,1.7828,1.7855,1.7874,1.7877,1.7911,1.7925,1.7951,1.7988,1.8006,1.8,1.8062,1.8044,1.8046,1.8049,1.8071,1.8076,1.8081,1.802,1.802,1.802,0,0,1.7755,1.7771,1.7798,1.7816,1.7841,1.7853,1.786,1.7886,1.7895,1.793,1.7933,1.7957,1.8001,1.802,1.8035,1.8075,1.8076,1.8082,1.8099,1.8122,1.8126,1.813,1.8145,1.815,1.8086,1.8086,1.8086,0,1.7763,1.7801,1.7812,1.784,1.7856,1.786,1.7888,1.7905,1.7938,1.7949,1.7943,1.8,1.8017,1.806,1.807,1.8081,1.809,1.8079,1.8124,1.8128,1.8132,1.8147,1.8153,1.8087,1.8087,1.8087,1.8086,0,1.7812,1.7838,1.7857,1.7889,1.7908,1.7936,1.7951,1.7969,1.7974,1.7987,1.8024,1.8045,1.8075,1.8085,1.809,1.813,1.8126,1.8122,1.811,1.8138,1.8152,1.8158,1.8088,1.8087,1.8087,1.8087,0,0,1.7844,1.7882,1.7889,1.7905,1.7934,1.7955,1.7984,1.8014,1.8029,1.8052,1.8077,1.8116,1.8113,1.813,1.8137,1.8157,1.8189,1.8151,1.8152,1.8158,1.8235,1.8238,1.8245,1.819,1.8191,1.8192,1.8233,0,1.7879,1.793,1.7941,1.7985,1.801,1.8015,1.8041,1.8062,1.8075,1.8099,1.8114,1.8141,1.8134,1.8145,1.8164,1.8181,1.8205,1.8178,1.8214,1.8215,1.8208,1.8252,1.8255,1.8293,1.8239,1.824,1.824,0,1.7926,1.795,1.7997,1.8025,1.8036,1.8058,1.8087,1.811,1.8135,1.8143,1.8164,1.8169,1.8201,1.8187,1.8231,1.8213,1.8229,1.8239,1.8241,1.8245,1.823,1.8258,1.8305,1.8311,1.8249,1.8248,1.8248,0,1.7946,1.7991,1.8025,1.8038,1.8071,1.8087,1.8101,1.8125,1.8143,1.8168,1.818,1.8209,1.8225,1.8248,1.8262,1.825,1.8305,1.8293,1.8314,1.8313,1.8325,1.8324,1.8376,1.8334,1.8334,1.8334,1.8334,0,1.7984,1.8013,1.8035,1.8056,1.8089,1.8102,1.8134,1.8149,1.817,1.8195,1.8201,1.8224,1.8241,1.8267,1.8278,1.8314,1.8321,1.8329,1.8332,1.8329,1.8328,1.8339,1.8337,1.8335,1.8335,1.8335,1.8334,0,1.8013,1.8028,1.8066,1.8094,1.8102,1.8125,1.815,1.8171,1.8185,1.8216,1.8224,1.8246,1.8277,1.8293,1.8331,1.8339,1.8379,1.838,1.8371,1.8372,1.8393,1.8391,1.8455,1.8464,1.8415,1.8415,1.8416,0,1.8036,1.8058,1.809,1.8107,1.8122,1.8149,1.8167,1.8181,1.82,1.8231,1.8249,1.828,1.8306,1.8356,1.8375,1.8405,1.8407,1.8428,1.8412,1.8409,1.8409,1.8408,1.8411,1.843,1.8431,1.8431,1.8432,0,1.8077,1.8084,1.811,1.8139,1.8161,1.8184,1.8208,1.8221,1.824,1.8261,1.8293,1.8313,1.8353,1.8384,1.8416,1.8432,1.8435,1.8437,1.8443,1.8441,1.8435,1.844,1.8379,1.8435,1.8435,1.8434,1.8434,1.8434,1.8104,1.8125,1.815,1.818,1.8199,1.8221,1.8243,1.8259,1.8286,1.8319,1.8326,1.836,1.8387,1.843,1.8447,1.8474,1.847,1.8479,1.8482,1.8484,1.8486,1.843,1.848,1.848,1.848,1.848,1.848,0,1.8146,1.8163,1.819,1.8223,1.8246,1.8247,1.8273,1.8293,1.8323,1.8347,1.8372,1.841,1.8441,1.8463,1.8495,1.8513,1.8515,1.8521,1.852,1.8524,1.8487,1.8478,1.8518,1.8518,1.8518,1.8518,1.8518,1.8518,1.8171,1.8206,1.8216,1.8262,1.8279,1.8312,1.8327,1.8348,1.8368,1.8409,1.8435,1.8449,1.8473,1.8507,1.8536,1.8542,1.8554,1.8559,1.8565,1.853,1.8526,1.8522,1.8515,1.8562,1.8562,1.86,1.8601,1.8601]},{"header":{"parameterUnit":"m.s-1","parameterCategory":1,"la1":30.2991,"la2":30.254,"lo1":-89.0895,"lo2":-89.0444,"dy":0.0017,"dx":0.0017,"nx":28,"ny":28,"refTime":"2024-02-12T09:00:00:Z","depth":0,"parameterNumber":3,"parameterNumberName":"V-component_of_WINDS"},"data":[0,0,0,0,0,0,0,0,0,0,0,0,0,0,0,0,0,0,0,0,0,0,0,0,0,0,0,0,0,0,0,0,0,0,0,0,0,0,0,0,0,0,0,0,0,0,0,0,0,0,0,0,0,0,0,0,0,0,-3.2902,-3.2903,0,-3.2967,-3.2967,-3.2968,-3.2983,-3.2982,-3.2982,-3.2982,-3.3045,-3.3047,-3.3049,0,0,0,0,0,0,0,0,0,0,0,0,0,-3.279,-3.2792,-3.2902,-3.2903,-3.2903,-3.2967,-3.2967,-3.2968,-3.2983,-3.2982,-3.2982,-3.2981,-3.3044,-3.3047,-3.3049,0,0,0,0,0,0,0,0,0,0,0,0,0,-3.2845,-3.2793,-3.2902,-3.2918,-3.2921,-3.2966,-3.2967,-3.2969,-3.2983,-3.2982,-3.2982,-3.2981,-3.3043,-3.3046,-3.3049,-3.3082,0,0,-3.3059,-3.306,0,0,0,0,0,0,0,0,-3.2842,-3.2849,-3.2915,-3.2917,-3.292,-3.2966,-3.2951,-3.3007,-3.2983,-3.2959,-3.2982,-3.2981,-3.3019,-3.3024,-3.3038,-3.3085,-3.3088,-3.3059,-3.3061,-3.3063,-3.3063,0,0,0,0,0,0,0,-3.2838,-3.2846,-3.2927,-3.2916,-3.2919,-3.2923,-3.293,-3.2962,-3.2992,-3.2961,-3.2963,-3.297,-3.302,-3.3035,-3.3039,-3.3089,-3.3059,-3.3062,-3.3064,-3.3065,-3.317,-3.3171,0,0,0,0,0,0,-3.2832,-3.2843,-3.2925,-3.2929,-3.2879,-3.2925,-3.2933,-3.2952,-3.2992,-3.2997,-3.2971,-3.2971,-3.3029,-3.3035,-3.3041,-3.3085,-3.3063,-3.3066,-3.3067,-3.3169,-3.317,-3.3171,0,0,0,0,0,0,-3.2829,-3.2839,-3.2923,-3.2887,-3.2898,-3.2928,-3.2949,-3.2953,-3.2968,-3.2999,-3.3004,-3.298,-3.3029,-3.3037,-3.3073,-3.3087,-3.3067,-3.307,-3.3168,-3.317,-3.3171,-3.317,0,0,0,0,0,0,-3.2826,-3.2838,-3.285,-3.2887,-3.29,-3.2953,-3.295,-3.2955,-3.2974,-3.2974,-3.3009,-3.3014,-3.3029,-3.3068,-3.3076,-3.3091,-3.3072,-3.3167,-3.3169,-3.317,-3.3169,-3.3171,-3.3173,0,0,0,0,0,-3.2822,-3.2846,-3.2851,-3.2861,-3.2916,-3.2954,-3.2961,-3.2979,-3.2975,-3.2988,-3.3008,-3.3013,-3.3084,-3.3072,-3.3081,-3.3097,-3.3166,-3.3168,-3.317,-3.3168,-3.3171,-3.3173,0,0,0,0,0,0,-3.2808,-3.2851,-3.2857,-3.2894,-3.2921,-3.2956,-3.2973,-3.2981,-3.3008,-3.3008,-3.3028,-3.3036,-3.3071,-3.3087,-3.3073,-3.3133,-3.3125,-3.3129,-3.3121,-3.3123,-3.3125,-3.3121,-3.3075,0,0,0,0,0,-3.281,-3.2838,-3.2873,-3.2903,-3.2916,-3.2943,-3.296,-3.2972,-3.3,-3.301,-3.3033,-3.306,-3.3089,-3.3107,-3.3134,-3.3172,-3.3181,-3.3187,-3.319,-3.3191,-3.3194,-3.3218,-3.3222,-3.3178,-3.3178,-3.3178,0,0,-3.2813,-3.284,-3.2856,-3.2901,-3.2923,-3.2952,-3.2952,-3.2981,-3.3003,-3.3014,-3.3051,-3.3069,-3.31,-3.3137,-3.3155,-3.3152,-3.3209,-3.3194,-3.3195,-3.3197,-3.3221,-3.3225,-3.3229,-3.3179,-3.3179,-3.3179,0,0,-3.2834,-3.2856,-3.2885,-3.2908,-3.2942,-3.296,-3.2967,-3.3003,-3.3016,-3.3053,-3.3064,-3.3089,-3.3138,-3.316,-3.3178,-3.3211,-3.3217,-3.322,-3.3231,-3.3254,-3.3257,-3.3261,-3.3275,-3.3279,-3.3223,-3.3223,-3.3223,0,-3.2833,-3.2877,-3.2898,-3.2928,-3.2949,-3.2963,-3.2992,-3.3013,-3.3054,-3.3068,-3.3065,-3.3128,-3.315,-3.3194,-3.3203,-3.3216,-3.3226,-3.3216,-3.3255,-3.3259,-3.3262,-3.3276,-3.3281,-3.3223,-3.3223,-3.3223,-3.3223,0,-3.2876,-3.2906,-3.2925,-3.2967,-3.299,-3.3019,-3.3045,-3.3065,-3.3076,-3.3095,-3.3134,-3.3161,-3.3196,-3.3207,-3.3216,-3.3254,-3.3252,-3.3251,-3.3245,-3.3266,-3.328,-3.3285,-3.3223,-3.3223,-3.3223,-3.3223,0,0,-3.2887,-3.2944,-3.295,-3.2971,-3.3012,-3.3036,-3.3067,-3.3103,-3.3121,-3.3149,-3.3177,-3.3219,-3.3221,-3.3241,-3.3254,-3.3274,-3.3302,-3.3272,-3.3273,-3.3278,-3.3347,-3.3348,-3.3354,-3.3306,-3.3307,-3.3308,-3.3345,0,-3.2914,-3.2972,-3.2993,-3.304,-3.307,-3.3086,-3.3113,-3.3141,-3.316,-3.3189,-3.3209,-3.324,-3.3238,-3.3251,-3.3272,-3.3294,-3.3316,-3.3291,-3.3333,-3.3334,-3.3325,-3.336,-3.336,-3.3394,-3.335,-3.3351,-3.3352,0,-3.2952,-3.2985,-3.3035,-3.3076,-3.3089,-3.3114,-3.315,-3.3177,-3.321,-3.3223,-3.3247,-3.326,-3.3294,-3.3285,-3.3333,-3.3316,-3.3334,-3.3348,-3.335,-3.3355,-3.3345,-3.3368,-3.3405,-3.3411,-3.336,-3.3359,-3.3359,0,-3.2958,-3.3014,-3.3053,-3.307,-3.3117,-3.3134,-3.3155,-3.3187,-3.3209,-3.3241,-3.3256,-3.329,-3.3309,-3.3336,-3.3358,-3.3349,-3.3405,-3.3397,-3.3417,-3.3417,-3.3428,-3.3427,-3.3471,-3.3438,-3.3438,-3.3438,-3.3438,0,-3.2987,-3.3017,-3.3057,-3.308,-3.3116,-3.3141,-3.3175,-3.3197,-3.3226,-3.3255,-3.327,-3.3296,-3.3323,-3.3353,-3.337,-3.3409,-3.3417,-3.3429,-3.3433,-3.3428,-3.3427,-3.3441,-3.3439,-3.3439,-3.3439,-3.3439,-3.3439,0,-3.2999,-3.3026,-3.307,-3.3113,-3.3124,-3.3149,-3.3186,-3.321,-3.3231,-3.3267,-3.3277,-3.3309,-3.3346,-3.3371,-3.3417,-3.3428,-3.3471,-3.3474,-3.3461,-3.3463,-3.3482,-3.3481,-3.3537,-3.3546,-3.3506,-3.3506,-3.3507,0,-3.3015,-3.304,-3.3087,-3.3108,-3.3129,-3.3163,-3.3186,-3.3212,-3.3235,-3.3277,-3.3297,-3.3335,-3.3367,-3.3425,-3.3452,-3.3489,-3.3494,-3.3511,-3.3499,-3.3494,-3.3496,-3.3495,-3.3499,-3.3513,-3.3513,-3.3513,-3.3514,0,-3.3042,-3.3056,-3.3089,-3.3129,-3.3157,-3.3188,-3.322,-3.3236,-3.3268,-3.3294,-3.3333,-3.3358,-3.3407,-3.3445,-3.3485,-3.3506,-3.3516,-3.3517,-3.3524,-3.352,-3.3512,-3.3519,-3.3467,-3.3516,-3.3516,-3.3515,-3.3515,-3.3515,-3.3058,-3.3082,-3.312,-3.3158,-3.3185,-3.3216,-3.3242,-3.3268,-3.3301,-3.3344,-3.3358,-3.3399,-3.3434,-3.3489,-3.3511,-3.3543,-3.3542,-3.3551,-3.3554,-3.3556,-3.3557,-3.3506,-3.355,-3.355,-3.355,-3.355,-3.355,0,-3.3088,-3.3114,-3.3148,-3.3194,-3.3225,-3.3233,-3.327,-3.3294,-3.3331,-3.3364,-3.3396,-3.3443,-3.3481,-3.3513,-3.3553,-3.3573,-3.3579,-3.3583,-3.3582,-3.3587,-3.3555,-3.3546,-3.3578,-3.3578,-3.3578,-3.3578,-3.3578,-3.3578,-3.3106,-3.3149,-3.3167,-3.3224,-3.325,-3.3292,-3.3312,-3.3341,-3.3368,-3.342,-3.3453,-3.3474,-3.3507,-3.355,-3.3586,-3.3595,-3.3609,-3.3613,-3.3622,-3.3592,-3.3589,-3.3586,-3.3578,-3.3615,-3.3616,-3.3652,-3.3652,-3.3653]}]]